TimeICT,TemperatureF,Dew PointF,Humidity,Sea Level PressureIn,VisibilityMPH,Wind Direction,Wind SpeedMPH,Gust SpeedMPH,PrecipitationIn,Events,Conditions,WindDirDegrees,DateUTC
12:00 AM,80.6,69.8,70,29.83,5.6,North,5.8,-,N/A,,Partly Cloudy,360,2013-02-25 17:00:00
12:30 AM,80.6,69.8,70,29.83,5.6,NNE,2.3,-,N/A,,Partly Cloudy,20,2013-02-25 17:30:00
1:00 AM,80.6,69.8,70,29.83,5.6,NE,2.3,-,N/A,,Partly Cloudy,50,2013-02-25 18:00:00
7:00 AM,78.8,66.2,65,29.86,5.6,East,6.9,-,N/A,,Partly Cloudy,100,2013-02-26 00:00:00
7:30 AM,80.6,66.2,61,29.89,5.6,ESE,6.9,-,N/A,,Partly Cloudy,120,2013-02-26 00:30:00
8:00 AM,82.4,64.4,54,29.89,5.6,ESE,9.2,-,N/A,,Partly Cloudy,110,2013-02-26 01:00:00
8:30 AM,84.2,64.4,51,29.89,5.6,ESE,9.2,-,N/A,,Partly Cloudy,120,2013-02-26 01:30:00
9:00 AM,86.0,62.6,45,29.89,5.6,East,13.8,-,N/A,,Partly Cloudy,100,2013-02-26 02:00:00
9:30 AM,86.0,62.6,45,29.89,-9999.0,East,15.0,-,N/A,,Clear,100,2013-02-26 02:30:00
10:00 AM,87.8,62.6,43,29.89,-9999.0,ESE,15.0,-,N/A,,Clear,120,2013-02-26 03:00:00
10:30 AM,87.8,62.6,43,29.89,-9999.0,ESE,15.0,-,N/A,,Clear,120,2013-02-26 03:30:00
11:00 AM,91.4,62.6,38,29.86,-9999.0,SE,12.7,-,N/A,,Clear,130,2013-02-26 04:00:00
11:30 AM,91.4,62.6,38,29.86,-9999.0,SE,12.7,-,N/A,,Clear,130,2013-02-26 04:30:00
12:00 PM,93.2,60.8,34,29.83,-9999.0,SSE,12.7,-,N/A,,Clear,150,2013-02-26 05:00:00
12:30 PM,93.2,66.2,41,29.83,-9999.0,South,12.7,-,N/A,,Clear,180,2013-02-26 05:30:00
1:00 PM,93.2,66.2,41,29.80,-9999.0,South,12.7,-,N/A,,Clear,190,2013-02-26 06:00:00
1:30 PM,93.2,68.0,44,29.80,-9999.0,South,12.7,-,N/A,,Clear,170,2013-02-26 06:30:00
2:00 PM,93.2,64.4,38,29.77,-9999.0,SSW,10.4,-,N/A,,Clear,200,2013-02-26 07:00:00
2:30 PM,93.2,64.4,38,29.77,-9999.0,SW,11.5,-,N/A,,Clear,220,2013-02-26 07:30:00
3:00 PM,93.2,66.2,41,29.74,-9999.0,SSW,11.5,-,N/A,,Clear,210,2013-02-26 08:00:00
3:30 PM,93.2,66.2,41,29.74,-9999.0,SSW,11.5,-,N/A,,Clear,200,2013-02-26 08:30:00
4:00 PM,91.4,64.4,41,29.74,-9999.0,South,11.5,-,N/A,,Clear,180,2013-02-26 09:00:00
4:30 PM,91.4,66.2,43,29.74,-9999.0,South,9.2,-,N/A,,Clear,190,2013-02-26 09:30:00
5:00 PM,89.6,66.2,46,29.74,-9999.0,SW,6.9,-,N/A,,Clear,230,2013-02-26 10:00:00
5:30 PM,89.6,66.2,46,29.74,-9999.0,SSW,6.9,-,N/A,,Clear,200,2013-02-26 10:30:00
6:00 PM,87.8,66.2,49,29.74,5.6,WSW,2.3,-,N/A,,Unknown,240,2013-02-26 11:00:00
6:30 PM,86.0,69.8,58,29.74,5.6,Calm,Calm,-,N/A,,Unknown,0,2013-02-26 11:30:00
7:00 PM,86.0,68.0,55,29.77,5.0,Calm,Calm,-,N/A,,Unknown,0,2013-02-26 12:00:00
7:30 PM,84.2,69.8,62,29.77,5.0,Calm,Calm,-,N/A,,Unknown,0,2013-02-26 12:30:00
8:00 PM,84.2,69.8,62,29.77,5.0,Calm,Calm,-,N/A,,Unknown,0,2013-02-26 13:00:00
8:30 PM,82.4,69.8,66,29.80,5.0,Variable,3.5,-,N/A,,Unknown,0,2013-02-26 13:30:00
9:00 PM,82.4,69.8,66,29.80,5.0,Calm,Calm,-,N/A,,Unknown,0,2013-02-26 14:00:00
9:30 PM,82.4,69.8,66,29.80,5.0,Calm,Calm,-,N/A,,Unknown,0,2013-02-26 14:30:00
10:00 PM,82.4,71.6,70,29.80,5.0,Calm,Calm,-,N/A,,Unknown,0,2013-02-26 15:00:00
10:30 PM,80.6,69.8,70,29.80,5.0,Calm,Calm,-,N/A,,Unknown,0,2013-02-26 15:30:00
11:00 PM,80.6,69.8,70,29.80,5.0,Calm,Calm,-,N/A,,Unknown,0,2013-02-26 16:00:00
11:30 PM,80.6,69.8,70,29.80,5.0,Calm,Calm,-,N/A,,Unknown,0,2013-02-26 16:30:00